Location: Chateh
(58.6667°N, 118.6000°W)
Time: 19:53:35
(UTC+00:00)

Gurwin Techsat 1B - Pass Details

Date: 04 December 2023
Orbit: 810 x 813 km, 98.9° (Epoch: 21 February)

Event Time Altitude Azimuth Distance (km) Brightness Sun altitude
Rises 10:19:07 0° 21° (NNE) 3,352 12.4 -44.3°
Reaches altitude 10° 10:21:50 10° 34° (NE) 2,416 11.6 -44.1°
Enters shadow 10:22:37 13° 39° (NE) 2,180 11.3 -44.0°
